[Date Prev][Date Next][Thread Prev][Thread Next] - [Date Index][Thread Index][Author Index]

2 Line ISS Keps 5-19 - updates 1 min



ISS
1 25544U 98067A   04140.30369633  .00011166  00000-0  10284-3 0  8084
2 25544  51.6326 112.9119 0006293 127.0830  17.4166 15.68195518313786


----
Via the sarex mailing list at AMSAT.ORG courtesy of AMSAT-NA.
To unsubscribe, send "unsubscribe sarex" to Majordomo@amsat.org



AMSAT Top AMSAT Home